Creston, IA

9:33 AM CDT on April 27, 2017 (GMT -0500)
Creston Municipal

Weather History for KCSQ - November, 2012

Change the Weather History Date:

Sunday, November 18, 2012

  Actual Average Record
Temperature  
Mean Temperature 48 °F -  
Max Temperature 59 °F 47 °F 75 °F (1999)
Min Temperature 37 °F 30 °F 1 °F (2014)
Degree Days  
Heating Degree Days 17    
Moisture  
Dew Point 30 °F    
Average Humidity 47    
Maximum Humidity 70    
Minimum Humidity 33    
Precipitation  
Precipitation 0.00 in - - ()
Sea Level Pressure  
Sea Level Pressure 30.18 in    
Wind  
Wind Speed 12 mph (SSE)    
Max Wind Speed 21 mph    
Max Gust Speed 25 mph    
Visibility 10 miles    
Events Rain    
Averages and records for this station are not official NWS values.
T = Trace of Precipitation, MM = Missing Value Source: NWS Daily Summary

Daily Weather History Graph

Daily Weather History Graph

Search for Another Location

Airport or City:

Trip Planner

Search our weather history database for the weather conditions in past years. The results will help you decide how hot, cold, wet, or windy it might be!

Date:

Astronomy

Nov. 18, 2012 Rise Set
Actual Time 7:09 AM CST 4:55 PM CST
Civil Twilight 6:39 AM CST 5:25 PM CST
Nautical Twilight 6:05 AM CST 5:59 PM CST
Astronomical Twilight 5:33 AM CST 6:31 PM CST
Moon 11:36 AM CST (11/18) 10:17 PM CST (11/18)
Length of Visible Light 10h 46m
Length of Day
9h 46m
Waxing Crescent, 30% of the Moon is Illuminated
Nov 18
Waxing Crescent
Nov 20
First Quarter
Nov 28
Full
Dec 6
Last Quarter
Dec 13
New

Hourly Weather History & Observations

Time (CST) Temp. Windchill Dew Point Humidity Pressure Visibility Wind Dir Wind Speed Gust Speed Precip Events Conditions
12:15 AM 44.6 °F 39.2 °F 30.2 °F 57% 30.26 in 10.0 mi SSE 10.4 mph - N/A   Overcast
12:35 AM 44.6 °F 38.8 °F 30.2 °F 57% 30.25 in 10.0 mi SSE 11.5 mph - N/A   Overcast
1:15 AM 46.4 °F 40.7 °F 28.4 °F 50% 30.25 in 10.0 mi SSE 12.7 mph - N/A   Overcast
1:55 AM 44.6 °F 39.2 °F 28.4 °F 53% 30.24 in 10.0 mi SSE 10.4 mph 17.3 mph N/A   Mostly Cloudy
2:15 AM 44.6 °F 38.8 °F 28.4 °F 53% 30.25 in 10.0 mi SSE 11.5 mph - N/A   Clear
2:35 AM 44.6 °F 39.2 °F 28.4 °F 53% 30.25 in 10.0 mi SSE 10.4 mph - N/A   Mostly Cloudy
2:55 AM 44.6 °F 39.2 °F 28.4 °F 53% 30.24 in 10.0 mi SSE 10.4 mph - N/A   Overcast
3:15 AM 42.8 °F 37.0 °F 28.4 °F 57% 30.24 in 10.0 mi SSE 10.4 mph - N/A   Overcast
3:35 AM 42.8 °F 37.5 °F 28.4 °F 57% 30.23 in 10.0 mi SE 9.2 mph - N/A   Mostly Cloudy
3:55 AM 41.0 °F 35.8 °F 28.4 °F 61% 30.23 in 10.0 mi SSE 8.1 mph - N/A   Scattered Clouds
4:15 AM 39.2 °F 33.6 °F 28.4 °F 65% 30.23 in 10.0 mi SSE 8.1 mph - N/A   Clear
4:35 AM 39.2 °F 33.0 °F 28.4 °F 65% 30.23 in 10.0 mi SSE 9.2 mph - N/A   Scattered Clouds
4:55 AM 39.2 °F 32.5 °F 28.4 °F 65% 30.23 in 10.0 mi SSE 10.4 mph - N/A   Scattered Clouds
5:15 AM 37.4 °F 30.8 °F 28.4 °F 70% 30.22 in 10.0 mi SSE 9.2 mph - N/A   Clear
5:35 AM 37.4 °F 31.4 °F 28.4 °F 70% 30.22 in 10.0 mi SSE 8.1 mph - N/A   Clear
5:55 AM 39.2 °F 32.5 °F 28.4 °F 65% 30.22 in 10.0 mi SSE 10.4 mph - N/A   Scattered Clouds
6:15 AM 39.2 °F 32.5 °F 28.4 °F 65% 30.21 in 10.0 mi SSE 10.4 mph - N/A   Mostly Cloudy
6:35 AM 39.2 °F 32.5 °F 28.4 °F 65% 30.21 in 10.0 mi SSE 10.4 mph - N/A   Mostly Cloudy
6:55 AM 39.2 °F 32.5 °F 28.4 °F 65% 30.21 in 10.0 mi SSE 10.4 mph - N/A   Scattered Clouds
7:15 AM 39.2 °F 33.0 °F 28.4 °F 65% 30.21 in 10.0 mi SSE 9.2 mph - N/A   Mostly Cloudy
7:35 AM 42.8 °F 36.6 °F 28.4 °F 57% 30.22 in 10.0 mi SSE 11.5 mph 18.4 mph N/A   Overcast
7:55 AM 42.8 °F 36.2 °F 28.4 °F 57% 30.21 in 10.0 mi SSE 12.7 mph - N/A   Overcast
8:15 AM 44.6 °F 37.2 °F 28.4 °F 53% 30.22 in 10.0 mi South 17.3 mph 21.9 mph N/A   Overcast
8:35 AM 46.4 °F 40.1 °F 28.4 °F 50% 30.22 in 10.0 mi South 15.0 mph - N/A   Overcast
8:55 AM 48.2 °F - 28.4 °F 46% 30.21 in 10.0 mi South 16.1 mph 24.2 mph N/A   Mostly Cloudy
9:15 AM 46.4 °F 39.0 °F 28.4 °F 50% 30.21 in 10.0 mi South 19.6 mph 25.3 mph N/A   Scattered Clouds
9:35 AM 48.2 °F - 28.4 °F 46% 30.21 in 10.0 mi South 17.3 mph - N/A   Clear
9:55 AM 48.2 °F - 28.4 °F 46% 30.21 in 10.0 mi South 18.4 mph - N/A   Clear
10:15 AM 50.0 °F - 28.4 °F 43% 30.21 in 10.0 mi South 18.4 mph - N/A   Clear
10:35 AM 51.8 °F - 28.4 °F 41% 30.21 in 10.0 mi South 15.0 mph - N/A   Clear
10:55 AM 53.6 °F - 30.2 °F 41% 30.21 in 10.0 mi South 18.4 mph - N/A   Clear
11:15 AM 53.6 °F - 30.2 °F 41% 30.20 in 10.0 mi South 16.1 mph - N/A   Clear
11:35 AM 55.4 °F - 30.2 °F 38% 30.19 in 10.0 mi South 17.3 mph - N/A   Clear
11:55 AM 57.2 °F - 28.4 °F 33% 30.18 in 10.0 mi South 20.7 mph - N/A   Clear
12:15 PM 57.2 °F - 28.4 °F 33% 30.18 in 10.0 mi SSW 16.1 mph 24.2 mph N/A   Clear
12:35 PM 59.0 °F - 30.2 °F 34% 30.17 in 10.0 mi South 15.0 mph - N/A   Clear
12:55 PM 57.2 °F - 28.4 °F 33% 30.17 in 10.0 mi South 16.1 mph - N/A   Clear
1:15 PM 57.2 °F - 28.4 °F 33% 30.16 in 10.0 mi South 12.7 mph - N/A   Clear
1:35 PM 57.2 °F - 28.4 °F 33% 30.16 in 10.0 mi South 16.1 mph - N/A   Clear
1:55 PM 57.2 °F - 28.4 °F 33% 30.15 in 10.0 mi SSE 11.5 mph 17.3 mph N/A   Clear
2:15 PM 57.2 °F - 28.4 °F 33% 30.15 in 10.0 mi South 12.7 mph - N/A   Scattered Clouds
2:35 PM 57.2 °F - 28.4 °F 33% 30.14 in 10.0 mi SSE 11.5 mph - N/A   Mostly Cloudy
2:55 PM 57.2 °F - 28.4 °F 33% 30.14 in 10.0 mi SSE 10.4 mph - N/A   Scattered Clouds
3:15 PM 57.2 °F - 30.2 °F 36% 30.13 in 10.0 mi SE 10.4 mph - N/A   Clear
3:35 PM 57.2 °F - 30.2 °F 36% 30.14 in 10.0 mi SSE 11.5 mph - N/A   Clear
3:55 PM 55.4 °F - 30.2 °F 38% 30.14 in 10.0 mi SSE 11.5 mph - N/A   Clear
4:15 PM 55.4 °F - 30.2 °F 38% 30.14 in 10.0 mi SSE 12.7 mph - N/A   Scattered Clouds
4:35 PM 55.4 °F - 32.0 °F 41% 30.14 in 10.0 mi SE 11.5 mph - N/A   Scattered Clouds
4:55 PM 53.6 °F - 33.8 °F 47% 30.14 in 10.0 mi SE 11.5 mph - N/A   Scattered Clouds
5:15 PM 53.6 °F - 33.8 °F 47% 30.14 in 10.0 mi SE 13.8 mph - N/A   Scattered Clouds
5:35 PM 53.6 °F - 33.8 °F 47% 30.15 in 10.0 mi SE 13.8 mph - N/A   Scattered Clouds
5:55 PM 53.6 °F - 33.8 °F 47% 30.14 in 10.0 mi SE 12.7 mph - N/A   Scattered Clouds
6:15 PM 53.6 °F - 33.8 °F 47% 30.14 in 10.0 mi SSE 13.8 mph - N/A   Mostly Cloudy
6:35 PM 53.6 °F - 33.8 °F 47% 30.15 in 10.0 mi SSE 15.0 mph - N/A   Scattered Clouds
6:55 PM 53.6 °F - 33.8 °F 47% 30.15 in 10.0 mi SSE 12.7 mph - N/A   Mostly Cloudy
7:15 PM 53.6 °F - 33.8 °F 47% 30.15 in 10.0 mi SSE 12.7 mph - N/A   Overcast
7:35 PM 53.6 °F - 32.0 °F 44% 30.15 in 10.0 mi SSE 11.5 mph - N/A   Overcast
7:55 PM 53.6 °F - 32.0 °F 44% 30.14 in 10.0 mi SSE 12.7 mph - N/A   Overcast
8:15 PM 53.6 °F - 30.2 °F 41% 30.13 in 10.0 mi SSE 16.1 mph 20.7 mph N/A   Mostly Cloudy
8:35 PM 53.6 °F - 30.2 °F 41% 30.12 in 10.0 mi SSE 17.3 mph - N/A   Clear
8:55 PM 55.4 °F - 28.4 °F 36% 30.13 in 10.0 mi South 13.8 mph 23.0 mph N/A   Scattered Clouds
9:15 PM 55.4 °F - 28.4 °F 36% 30.14 in 10.0 mi South 15.0 mph - N/A   Clear
9:35 PM 53.6 °F - 28.4 °F 38% 30.14 in 10.0 mi South 12.7 mph - N/A   Scattered Clouds
9:55 PM 53.6 °F - 28.4 °F 38% 30.14 in 10.0 mi South 12.7 mph - N/A   Overcast
10:35 PM 53.6 °F - 28.4 °F 38% 30.14 in 10.0 mi South 12.7 mph - N/A   Overcast
10:55 PM 53.6 °F - 30.2 °F 41% 30.14 in 10.0 mi South 9.2 mph - N/A Rain Light Rain
11:15 PM 50.0 °F - 35.6 °F 58% 30.14 in 10.0 mi South 9.2 mph - N/A Rain Light Rain
11:35 PM 51.8 °F - 33.8 °F 50% 30.13 in 10.0 mi SSE 9.2 mph - N/A   Overcast
11:55 PM 51.8 °F - 32.0 °F 47% 30.13 in 10.0 mi SSE 11.5 mph - N/A   Overcast